SCP
0 0 0 0 0 0 0 0 0 0 0 0 0 0 -0 0 -0 0 0 -0 -0 -0 -0 -0 -0 -0 -0 0 0 0 0 0 0 0 0 0 0 0 0 0 0 0 0 0 0 0 0 0 0
0 0 0 0 0 0 0 0 0 0 0 0 0 0 -0 -0 0 0 -0 -0 -0 -0 -0 -0 -0 -0 -0 0 0 0 0 0 0 0 0 0 0 0 0 0 0 0 0 0 0 0 0 0 0
0 0 0 0 0 0 0 0 0 0 0 0 0 0 0 0 -0 0 0 0 0 0 0 0 0 -0 -0 0 0 0 0 0 0 0 0 0 0 0 0 0 0 0 0 0 0 0 0 0 0
0 0 0 0 0 0 0 0 0 0 0 0 0 0 0 0 0 0 0 0 0 0 0 0 0 -0 -0 0 0 0 0 0 0 0 0 0 0 0 0 0 0 0 0 0 0 0 0 0 0
0 0 0 0 0 0 0 0 0 0 0 0 0 0 0 0 0 0 0 0 0 0 0 0 0 0 0 0 0 0 0 0 0 0 0 0 0 0 0 0 0 0 0 0 0 0 0 0 0
0 0 0 0 0 0 0 0 0 0 0 0 0 0 0 0 0 0 0 0 0 0 0 0 0 1 1 1 1 0 0 0 0 0 0 0 0 0 0 0 0 0 0 0 0 0 0 0 0
0 0 0 0 0 0 0 0 0 0 0 0 0 0 0 0 0 0 0 0 0 0 0 0 0 0 1 1 1 0 0 0 0 0 0 0 0 0 0 0 0 0 0 0 0 0 0 0 0
0 0 0 0 0 0 0 0 0 0 0 0 0 0 0 0 0 0 0 0 0 0 0 0 0 0 0 0 1 1 1 1 1 0 1 1 1 1 0 0 0 0 0 0 0 0 0 0 0
0 0 0 0 0 0 0 0 0 0 0 0 0 0 0 0 0 0 0 0 0 0 0 0 0 0 0 0 0 2 1 1 1 1 1 1 0 0 0 0 0 0 1 0 0 0 0 0 0
0 0 0 0 0 0 0 0 0 0 0 0 0 0 0 0 0 0 0 0 0 0 0 0 0 0 0 0 0 1 0 0 0 0 0 0 0 0 0 0 1 1 1 1 1 1 1 0 0
0 0 0 0 0 0 0 0 0 0 0 0 0 0 0 0 0 0 0 0 0 0 0 0 0 1 1 0 0 1 1 1 1 0 1 1 0 1 0 0 1 1 1 1 1 1 1 0 0
0 0 0 0 0 0 0 0 0 0 0 0 0 0 0 0 0 0 0 0 0 0 0 0 0 1 1 0 1 1 1 1 1 1 2 2 2 2 1 0 1 2 1 1 1 1 1 1 1
0 0 0 0 0 0 0 0 0 0 0 0 0 -0 -0 0 0 0 -0 0 0 0 0 0 0 1 1 1 1 1 1 1 1 1 2 2 1 3 1 1 1 1 1 1 1 1 1 1 1
0 0 0 0 0 0 0 0 0 0 0 0 0 0 0 0 0 0 0 0 0 0 0 0 0 0 1 1 1 2 3 2 1 1 1 2 1 3 1 2 1 1 1 1 1 1 2 1 1
0 0 0 0 0 0 0 0 0 0 0 0 0 0 0 0 0 0 0 0 0 0 0 0 0 0 1 1 1 2 2 2 1 1 2 1 2 3 2 1 1 1 1 2 1 1 3 1 1
0 0 0 0 0 0 0 0 0 0 0 0 0 0 0 0 0 0 0 0 0 0 0 0 0 0 1 2 2 1 1 1 1 1 1 1 2 2 2 1 1 1 1 1 1 2 1 1 1
0 0 0 0 0 0 0 0 0 0 0 0 0 0 0 0 0 0 0 0 0 0 0 0 0 0 1 1 1 2 2 2 1 1 1 1 1 1 1 1 0 2 1 1 2 1 1 1 1
0 0 0 0 0 0 0 0 0 0 0 0 0 0 0 0 0 0 0 0 0 0 0 0 0 1 0 0 1 1 1 1 1 1 1 2 1 1 2 1 1 1 1 1 1 1 1 2 2
0 0 0 0 0 0 0 0 0 0 0 0 0 0 0 0 0 0 0 0 0 0 0 0 1 2 0 0 0 1 1 1 1 1 1 1 2 2 1 0 0 1 1 1 1 1 2 2 2
0 0 0 0 0 0 0 0 0 0 0 0 0 0 0 0 0 0 0 0 0 0 0 0 1 1 1 0 1 1 1 1 1 1 1 2 2 1 1 0 1 1 1 1 2 1 2 2 2
0 0 0 0 0 0 0 0 0 0 0 0 0 0 0 0 0 0 0 0 0 0 0 0 0 0 0 0 0 1 1 2 2 2 2 1 1 1 0 1 1 1 1 1 1 2 2 2 1
0 0 0 0 0 0 0 0 0 0 0 0 0 0 0 0 0 0 0 0 0 0 0 0 0 0 0 0 1 1 1 1 1 1 1 1 1 1 1 0 1 1 1 1 2 2 1 1 1
0 0 0 0 0 0 0 0 0 0 0 0 0 0 0 0 0 0 0 0 0 0 0 0 0 0 0 0 0 1 1 1 1 1 1 1 1 1 0 1 1 1 1 2 1 2 1 1 0
0 0 0 0 0 0 0 0 0 0 0 0 0 0 0 0 0 0 0 0 0 0 0 0 0 0 0 0 1 1 1 2 2 2 1 1 1 1 1 1 1 1 1 1 1 1 1 0 0
0 0 0 0 0 0 0 0 0 0 0 0 0 0 0 0 0 0 0 0 0 0 0 1 1 1 0 0 1 1 1 2 1 1 1 1 1 1 1 1 1 1 1 1 1 1 0 0 0
-0 0 0 0 0 0 0 0 0 0 0 0 0 0 0 0 0 0 0 0 0 0 1 0 0 0 0 1 1 1 1 1 1 1 1 1 1 1 1 1 1 1 1 1 1 0 0 0 0
-0 0 -0 0 0 0 0 0 0 0 0 0 0 0 0 0 0 0 0 0 0 0 0 0 0 1 1 1 1 1 1 1 1 1 2 1 1 1 1 1 1 1 0 0 0 0 0 0 0
-0 0 0 0 0 0 0 0 0 0 0 0 0 0 0 0 0 0 0 0 1 1 1 1 1 1 1 1 1 1 1 1 1 1 1 1 1 1 1 1 0 0 0 0 0 0 0 0 0
0 0 0 0 0 0 0 0 0 0 0 0 0 0 0 0 0 0 1 0 1 1 1 1 0 0 1 1 1 1 0 0 0 0 0 1 0 0 0 0 0 0 0 0 0 0 0 0 0
0 0 0 0 0 0 0 0 0 0 0 0 0 0 0 0 0 1 1 1 0 1 0 0 0 0 0 0 0 0 0 0 0 0 0 0 0 0 0 0 0 0 0 0 0 0 0 0 0
Wind_Speed_500mb
18 11 10 10 14 14 29 17 5 19 14 10 7 15 25 25 30 1 23 35 27 26 27 38 43 39 36 37 35 34 35 33 32 29 27 26 24 21 20 20 16 11 8 5 4 2 1 4 5
15 15 12 13 16 22 24 17 24 15 11 4 17 18 17 21 13 4 34 37 28 24 26 38 44 42 39 39 37 36 35 35 33 31 29 27 25 23 20 19 18 15 10 7 5 3 3 1 1
16 16 18 11 25 27 14 18 18 8 8 13 15 16 15 11 16 15 28 34 30 27 27 29 40 42 41 39 40 37 36 37 35 34 32 30 28 26 24 20 17 15 13 9 6 4 2 2 4
11 14 16 21 34 34 16 7 10 3 5 14 13 12 11 10 14 24 44 30 28 27 28 31 38 43 41 39 38 39 36 37 36 35 33 31 30 27 24 22 19 17 15 12 9 8 6 5 7
13 14 20 31 43 32 20 24 11 11 8 20 22 15 11 10 23 42 42 29 25 29 31 32 42 44 43 42 42 40 39 39 38 36 35 33 30 27 24 23 21 17 14 11 9 8 7 7 9
22 18 23 34 39 35 30 27 25 23 17 20 24 15 15 20 26 38 39 31 26 25 30 32 38 45 47 45 46 44 42 41 41 39 38 36 33 29 28 26 22 17 13 12 9 8 7 7 9
32 21 33 38 31 34 34 34 26 25 20 21 15 25 16 28 25 32 39 31 29 28 30 34 37 46 49 50 50 47 47 47 46 43 41 40 38 34 33 29 25 20 17 14 11 9 8 6 9
35 18 42 38 35 40 22 24 37 29 24 12 9 15 22 13 24 28 33 32 29 27 28 33 38 43 49 52 53 54 53 53 52 49 47 46 44 41 39 35 30 25 21 18 15 11 8 7 9
33 24 33 43 39 30 15 30 25 21 15 19 10 7 15 11 22 25 27 27 25 25 28 30 35 39 45 52 55 59 60 61 59 56 54 53 52 51 47 44 37 31 26 21 17 14 13 11 10
36 33 53 39 28 22 35 32 24 20 37 32 21 9 9 9 15 24 24 26 25 25 25 28 37 41 47 52 52 56 66 68 69 68 67 65 62 57 54 50 44 39 35 29 22 20 19 16 11
51 52 43 49 43 38 40 41 33 28 34 43 34 29 8 10 15 16 21 20 20 20 20 27 31 33 41 46 50 55 57 67 73 77 77 74 69 63 61 49 56 52 40 28 29 25 24 21 18
51 59 65 58 40 39 43 51 54 52 48 43 28 30 33 31 31 33 31 33 33 32 29 23 33 37 37 38 40 44 54 61 67 72 81 81 77 74 62 53 45 57 53 36 39 23 24 26 25
56 59 58 59 57 44 46 56 53 63 57 54 56 48 51 50 45 38 36 39 39 40 45 40 37 44 32 33 40 45 51 57 61 62 72 81 72 78 68 57 52 46 42 41 40 25 36 29 25
43 63 71 69 48 55 51 62 53 76 62 61 53 58 58 57 49 43 41 43 43 40 45 49 49 46 40 42 46 52 53 61 63 58 64 78 72 71 63 67 58 51 52 48 47 34 34 29 24
60 52 48 49 70 55 46 59 72 76 66 60 63 66 65 65 57 57 54 48 45 41 40 48 45 40 47 46 59 57 56 57 60 59 63 66 74 72 73 60 58 54 58 55 50 34 39 25 27
33 44 48 67 49 58 53 59 73 74 73 71 74 78 75 74 67 65 59 53 45 38 38 45 47 45 51 55 61 59 62 56 62 54 50 61 66 66 70 61 56 53 56 60 45 42 27 28 27
41 49 62 59 56 48 44 74 75 82 62 72 63 74 73 70 63 54 43 41 40 42 49 53 51 56 59 61 60 62 56 58 54 49 49 52 57 56 61 54 53 58 54 51 49 35 33 29 27
55 53 54 56 47 54 60 70 59 57 44 71 71 62 60 53 53 51 51 51 51 53 60 61 65 69 68 59 58 54 48 54 49 46 46 49 51 49 53 49 52 56 50 48 44 38 28 35 27
48 55 48 43 45 48 57 66 61 62 73 68 65 64 69 72 69 65 60 56 54 54 65 62 61 57 58 52 48 42 44 42 40 40 46 45 47 47 47 42 44 52 52 56 55 48 35 28 27
50 53 56 38 31 43 50 60 57 55 50 70 71 73 73 76 72 70 65 60 59 65 63 64 61 62 51 46 43 37 34 33 32 32 39 42 46 37 37 41 41 46 45 55 57 44 32 28 27
46 52 49 49 29 41 40 48 51 42 52 60 68 70 76 75 73 73 70 72 73 67 65 55 50 50 51 45 42 41 37 38 32 31 38 38 34 35 38 41 37 43 42 44 43 39 31 21 25
48 46 44 50 46 41 40 39 47 48 56 59 72 75 80 77 74 75 76 74 66 60 50 46 49 53 53 55 44 39 33 26 29 30 30 25 34 38 40 37 37 41 39 34 36 31 22 24 20
36 43 39 40 44 49 60 33 37 39 44 45 43 63 67 72 72 64 56 54 52 52 48 52 59 59 57 53 43 42 34 26 23 24 26 37 37 34 35 35 37 40 38 36 33 26 24 24 20
30 27 37 38 30 36 46 37 37 36 47 36 35 47 53 54 56 48 44 40 38 33 36 39 49 51 50 49 47 45 34 31 28 32 31 38 37 37 35 37 40 39 36 33 28 23 24 21 21
27 32 24 34 37 37 40 34 37 17 17 2 19 22 23 30 34 36 34 26 23 21 22 25 33 37 39 38 35 33 32 31 31 28 35 39 39 37 41 42 39 35 32 28 24 23 22 21 21
44 39 31 36 32 40 50 30 30 24 34 15 16 21 25 26 27 29 29 25 22 20 18 16 18 21 24 28 30 30 31 28 29 31 36 34 36 37 43 38 33 28 25 25 27 19 20 22 21
47 28 48 47 43 32 37 48 50 20 19 10 3 17 29 29 28 21 19 17 16 16 20 24 28 31 33 34 34 35 34 36 37 42 40 37 37 39 37 32 29 27 27 22 21 20 22 23 23
43 2 14 29 32 35 30 45 24 42 46 9 13 26 38 32 14 13 20 19 23 26 29 31 33 36 38 38 38 39 41 43 43 41 39 40 40 38 35 31 28 24 22 22 20 20 23 22 18
9 15 25 28 33 18 26 29 40 28 21 13 21 37 39 25 5 9 17 27 30 32 33 35 37 40 40 39 42 44 44 43 41 41 40 39 37 33 27 24 23 21 20 19 21 20 19 21 18
19 34 7 10 33 26 20 8 22 35 20 22 30 42 42 23 9 9 23 32 33 35 37 38 39 41 41 41 42 43 44 43 41 38 35 32 27 25 25 24 22 20 17 17 18 20 19 21 22
Wind_Direction_500mb
209 200 176 201 237 235 237 210 229 177 189 167 216 190 209 187 183 33 138 166 175 184 187 194 195 192 192 185 180 173 168 163 158 159 157 155 152 150 151 149 152 148 131 112 88 69 139 204 211
188 183 186 241 250 220 218 194 199 184 115 227 199 214 231 210 192 68 148 165 175 183 190 197 198 200 201 192 191 184 176 173 171 168 167 164 161 157 153 155 160 155 147 143 145 135 121 100 242
186 186 236 227 236 243 208 183 179 166 251 216 179 210 174 223 199 157 161 160 169 182 193 196 201 203 206 200 198 192 188 185 182 180 178 176 173 169 165 165 165 159 160 162 153 149 152 186 207
187 202 242 242 234 225 261 192 106 201 194 207 202 186 192 181 166 160 156 159 177 187 199 208 209 208 212 210 206 203 201 195 193 192 190 187 185 182 178 175 172 171 172 167 172 172 187 209 214
197 239 242 234 244 245 236 256 273 272 238 191 195 171 197 170 169 163 157 158 175 186 195 207 209 214 216 217 216 213 210 208 205 203 203 199 197 194 193 190 184 182 178 173 178 190 200 211 221
212 248 234 239 239 243 242 252 259 262 223 197 212 199 160 156 156 162 166 181 185 193 204 214 212 216 220 224 224 222 222 221 218 214 213 211 207 206 206 204 198 194 193 189 194 197 212 233 241
236 222 244 250 263 259 243 235 252 246 202 195 188 196 134 153 164 165 175 184 193 205 211 221 222 220 226 229 231 231 230 229 229 224 223 220 216 216 215 214 212 207 209 206 204 209 215 238 254
226 250 252 246 244 247 255 250 231 240 217 140 190 174 162 181 170 170 183 193 198 209 224 230 229 225 228 234 237 237 237 236 234 232 230 228 224 222 221 221 220 216 220 217 215 216 226 259 273
226 238 242 242 233 246 256 252 220 245 247 203 183 139 111 116 169 179 186 197 203 215 234 242 245 242 238 235 241 240 240 240 238 237 234 232 230 227 225 224 225 225 224 224 224 228 234 247 264
213 228 238 241 250 238 239 245 241 231 215 219 214 179 112 143 157 179 194 204 208 227 238 244 251 246 241 236 236 246 241 241 240 239 237 231 230 229 226 227 227 228 226 226 228 235 245 253 246
220 239 241 239 230 234 249 250 232 243 233 224 223 192 233 260 247 243 235 240 233 241 253 249 256 260 255 250 247 248 253 246 245 241 240 237 232 229 229 224 225 223 224 234 237 242 249 240 236
239 244 242 253 230 237 240 247 250 247 242 243 244 245 266 264 266 272 268 265 263 262 268 264 259 277 270 255 259 263 258 253 248 246 241 235 233 233 225 218 219 225 229 239 225 230 226 234 243
239 243 246 245 252 237 252 250 251 250 246 249 256 262 264 265 266 267 270 266 270 268 255 263 262 277 267 271 271 274 274 262 254 242 245 241 232 229 230 221 218 219 211 225 231 224 266 240 240
238 245 250 253 236 246 243 255 248 245 247 253 259 262 265 268 267 269 266 264 263 265 259 252 256 269 266 276 281 281 275 268 254 241 238 252 235 230 225 229 222 215 224 230 236 246 227 232 240
256 262 259 245 243 238 245 255 247 251 249 254 258 260 263 264 268 268 268 265 264 267 261 254 256 257 269 272 282 277 268 270 255 246 241 239 245 226 231 226 221 220 225 233 234 231 226 223 241
252 245 247 238 229 239 226 253 245 243 251 253 256 260 262 263 264 266 265 267 265 262 256 262 263 261 265 274 278 272 268 257 257 242 235 239 241 232 235 222 223 220 223 231 226 230 229 237 240
236 239 231 248 231 222 221 243 255 254 252 248 253 259 261 262 262 260 259 261 258 261 269 272 264 258 266 273 273 267 261 262 247 240 232 234 236 232 219 220 221 221 221 223 224 229 228 238 240
232 235 245 259 239 229 225 242 248 261 245 250 246 252 251 256 258 265 266 267 267 267 275 270 265 265 267 269 271 261 253 255 246 237 230 228 234 223 220 218 217 222 215 218 219 219 228 238 246
265 267 254 270 243 254 236 245 251 248 248 254 250 251 259 262 265 267 267 264 262 262 270 270 268 265 267 265 267 249 242 246 247 237 229 223 225 223 220 210 216 214 211 215 228 230 231 233 240
245 252 256 258 264 244 240 249 250 250 252 251 253 255 261 264 264 263 264 264 263 266 265 272 266 264 267 270 254 233 241 237 241 233 226 220 227 215 209 203 211 212 207 218 222 216 211 227 235
253 246 249 248 244 237 248 253 252 248 252 255 256 256 258 260 264 266 266 265 265 263 263 265 262 258 258 264 264 253 241 236 225 213 219 218 210 205 201 204 201 205 196 205 209 209 209 225 247
247 249 247 250 247 244 226 256 247 242 242 241 247 250 256 260 263 266 266 267 264 261 256 254 256 258 262 267 257 246 233 218 215 204 225 204 193 202 206 205 193 196 188 191 196 202 214 230 245
261 243 247 247 239 248 246 256 262 254 255 253 253 251 255 259 259 264 265 268 264 255 249 253 259 261 258 260 247 242 218 207 210 184 189 192 189 192 196 183 185 184 175 187 193 201 220 239 233
258 255 249 241 265 244 238 240 259 253 247 250 254 248 257 261 258 260 273 259 257 248 239 241 244 249 250 248 240 224 206 186 176 175 186 176 177 174 173 170 167 174 178 187 202 212 226 229 219
235 234 234 223 225 238 234 233 242 330 109 32 268 233 275 275 262 255 258 251 246 229 230 234 239 238 237 226 212 194 188 182 173 188 169 160 163 161 165 165 169 174 184 196 199 221 217 209 208
237 231 236 232 228 230 224 234 225 233 260 279 253 269 278 287 284 262 252 245 229 231 220 197 187 180 169 159 158 161 164 157 158 147 154 153 156 159 162 166 169 173 182 205 228 214 198 205 209
247 226 260 260 281 241 219 213 256 250 247 211 319 335 325 310 298 264 213 188 185 172 149 147 142 138 136 136 139 140 140 139 144 141 138 144 148 154 155 163 169 185 207 213 198 191 196 207 216
247 313 291 239 255 234 223 210 222 209 228 190 18 350 347 336 304 171 166 155 141 139 134 131 131 130 126 127 129 128 129 130 133 133 138 140 144 151 158 169 186 191 183 184 190 204 207 213 220
259 229 236 253 238 255 225 208 200 123 102 62 15 4 2 351 52 150 154 135 140 134 132 128 125 121 121 125 127 127 128 130 132 135 138 145 153 161 164 167 167 172 177 186 200 207 215 223 223
200 241 271 268 226 248 302 79 100 123 97 30 10 8 14 7 1 138 136 141 138 135 130 125 123 123 125 126 126 127 130 133 134 136 143 149 152 150 154 155 158 165 180 197 215 224 226 230 234
Wind_Speed_850mb
18 11 10 10 14 14 29 17 5 19 14 10 7 15 25 25 30 1 23 35 27 26 27 38 43 39 36 37 35 34 35 33 32 29 27 26 24 21 20 20 16 11 8 5 4 2 1 4 5
15 15 12 13 16 22 24 17 24 15 11 4 17 18 17 21 13 4 34 37 28 24 26 38 44 42 39 39 37 36 35 35 33 31 29 27 25 23 20 19 18 15 10 7 5 3 3 1 1
16 16 18 11 25 27 14 18 18 8 8 13 15 16 15 11 16 15 28 34 30 27 27 29 40 42 41 39 40 37 36 37 35 34 32 30 28 26 24 20 17 15 13 9 6 4 2 2 4
11 14 16 21 34 34 16 7 10 3 5 14 13 12 11 10 14 24 44 30 28 27 28 31 38 43 41 39 38 39 36 37 36 35 33 31 30 27 24 22 19 17 15 12 9 8 6 5 7
13 14 20 31 43 32 20 24 11 11 8 20 22 15 11 10 23 42 42 29 25 29 31 32 42 44 43 42 42 40 39 39 38 36 35 33 30 27 24 23 21 17 14 11 9 8 7 7 9
22 18 23 34 39 35 30 27 25 23 17 20 24 15 15 20 26 38 39 31 26 25 30 32 38 45 47 45 46 44 42 41 41 39 38 36 33 29 28 26 22 17 13 12 9 8 7 7 9
32 21 33 38 31 34 34 34 26 25 20 21 15 25 16 28 25 32 39 31 29 28 30 34 37 46 49 50 50 47 47 47 46 43 41 40 38 34 33 29 25 20 17 14 11 9 8 6 9
35 18 42 38 35 40 22 24 37 29 24 12 9 15 22 13 24 28 33 32 29 27 28 33 38 43 49 52 53 54 53 53 52 49 47 46 44 41 39 35 30 25 21 18 15 11 8 7 9
33 24 33 43 39 30 15 30 25 21 15 19 10 7 15 11 22 25 27 27 25 25 28 30 35 39 45 52 55 59 60 61 59 56 54 53 52 51 47 44 37 31 26 21 17 14 13 11 10
36 33 53 39 28 22 35 32 24 20 37 32 21 9 9 9 15 24 24 26 25 25 25 28 37 41 47 52 52 56 66 68 69 68 67 65 62 57 54 50 44 39 35 29 22 20 19 16 11
51 52 43 49 43 38 40 41 33 28 34 43 34 29 8 10 15 16 21 20 20 20 20 27 31 33 41 46 50 55 57 67 73 77 77 74 69 63 61 49 56 52 40 28 29 25 24 21 18
51 59 65 58 40 39 43 51 54 52 48 43 28 30 33 31 31 33 31 33 33 32 29 23 33 37 37 38 40 44 54 61 67 72 81 81 77 74 62 53 45 57 53 36 39 23 24 26 25
56 59 58 59 57 44 46 56 53 63 57 54 56 48 51 50 45 38 36 39 39 40 45 40 37 44 32 33 40 45 51 57 61 62 72 81 72 78 68 57 52 46 42 41 40 25 36 29 25
43 63 71 69 48 55 51 62 53 76 62 61 53 58 58 57 49 43 41 43 43 40 45 49 49 46 40 42 46 52 53 61 63 58 64 78 72 71 63 67 58 51 52 48 47 34 34 29 24
60 52 48 49 70 55 46 59 72 76 66 60 63 66 65 65 57 57 54 48 45 41 40 48 45 40 47 46 59 57 56 57 60 59 63 66 74 72 73 60 58 54 58 55 50 34 39 25 27
33 44 48 67 49 58 53 59 73 74 73 71 74 78 75 74 67 65 59 53 45 38 38 45 47 45 51 55 61 59 62 56 62 54 50 61 66 66 70 61 56 53 56 60 45 42 27 28 27
41 49 62 59 56 48 44 74 75 82 62 72 63 74 73 70 63 54 43 41 40 42 49 53 51 56 59 61 60 62 56 58 54 49 49 52 57 56 61 54 53 58 54 51 49 35 33 29 27
55 53 54 56 47 54 60 70 59 57 44 71 71 62 60 53 53 51 51 51 51 53 60 61 65 69 68 59 58 54 48 54 49 46 46 49 51 49 53 49 52 56 50 48 44 38 28 35 27
48 55 48 43 45 48 57 66 61 62 73 68 65 64 69 72 69 65 60 56 54 54 65 62 61 57 58 52 48 42 44 42 40 40 46 45 47 47 47 42 44 52 52 56 55 48 35 28 27
50 53 56 38 31 43 50 60 57 55 50 70 71 73 73 76 72 70 65 60 59 65 63 64 61 62 51 46 43 37 34 33 32 32 39 42 46 37 37 41 41 46 45 55 57 44 32 28 27
46 52 49 49 29 41 40 48 51 42 52 60 68 70 76 75 73 73 70 72 73 67 65 55 50 50 51 45 42 41 37 38 32 31 38 38 34 35 38 41 37 43 42 44 43 39 31 21 25
48 46 44 50 46 41 40 39 47 48 56 59 72 75 80 77 74 75 76 74 66 60 50 46 49 53 53 55 44 39 33 26 29 30 30 25 34 38 40 37 37 41 39 34 36 31 22 24 20
36 43 39 40 44 49 60 33 37 39 44 45 43 63 67 72 72 64 56 54 52 52 48 52 59 59 57 53 43 42 34 26 23 24 26 37 37 34 35 35 37 40 38 36 33 26 24 24 20
30 27 37 38 30 36 46 37 37 36 47 36 35 47 53 54 56 48 44 40 38 33 36 39 49 51 50 49 47 45 34 31 28 32 31 38 37 37 35 37 40 39 36 33 28 23 24 21 21
27 32 24 34 37 37 40 34 37 17 17 2 19 22 23 30 34 36 34 26 23 21 22 25 33 37 39 38 35 33 32 31 31 28 35 39 39 37 41 42 39 35 32 28 24 23 22 21 21
44 39 31 36 32 40 50 30 30 24 34 15 16 21 25 26 27 29 29 25 22 20 18 16 18 21 24 28 30 30 31 28 29 31 36 34 36 37 43 38 33 28 25 25 27 19 20 22 21
47 28 48 47 43 32 37 48 50 20 19 10 3 17 29 29 28 21 19 17 16 16 20 24 28 31 33 34 34 35 34 36 37 42 40 37 37 39 37 32 29 27 27 22 21 20 22 23 23
43 2 14 29 32 35 30 45 24 42 46 9 13 26 38 32 14 13 20 19 23 26 29 31 33 36 38 38 38 39 41 43 43 41 39 40 40 38 35 31 28 24 22 22 20 20 23 22 18
9 15 25 28 33 18 26 29 40 28 21 13 21 37 39 25 5 9 17 27 30 32 33 35 37 40 40 39 42 44 44 43 41 41 40 39 37 33 27 24 23 21 20 19 21 20 19 21 18
19 34 7 10 33 26 20 8 22 35 20 22 30 42 42 23 9 9 23 32 33 35 37 38 39 41 41 41 42 43 44 43 41 38 35 32 27 25 25 24 22 20 17 17 18 20 19 21 22
Wind_Direction_850mb
209 200 176 201 237 235 237 210 229 177 189 167 216 190 209 187 183 33 138 166 175 184 187 194 195 192 192 185 180 173 168 163 158 159 157 155 152 150 151 149 152 148 131 112 88 69 139 204 211
188 183 186 241 250 220 218 194 199 184 115 227 199 214 231 210 192 68 148 165 175 183 190 197 198 200 201 192 191 184 176 173 171 168 167 164 161 157 153 155 160 155 147 143 145 135 121 100 242
186 186 236 227 236 243 208 183 179 166 251 216 179 210 174 223 199 157 161 160 169 182 193 196 201 203 206 200 198 192 188 185 182 180 178 176 173 169 165 165 165 159 160 162 153 149 152 186 207
187 202 242 242 234 225 261 192 106 201 194 207 202 186 192 181 166 160 156 159 177 187 199 208 209 208 212 210 206 203 201 195 193 192 190 187 185 182 178 175 172 171 172 167 172 172 187 209 214
197 239 242 234 244 245 236 256 273 272 238 191 195 171 197 170 169 163 157 158 175 186 195 207 209 214 216 217 216 213 210 208 205 203 203 199 197 194 193 190 184 182 178 173 178 190 200 211 221
212 248 234 239 239 243 242 252 259 262 223 197 212 199 160 156 156 162 166 181 185 193 204 214 212 216 220 224 224 222 222 221 218 214 213 211 207 206 206 204 198 194 193 189 194 197 212 233 241
236 222 244 250 263 259 243 235 252 246 202 195 188 196 134 153 164 165 175 184 193 205 211 221 222 220 226 229 231 231 230 229 229 224 223 220 216 216 215 214 212 207 209 206 204 209 215 238 254
226 250 252 246 244 247 255 250 231 240 217 140 190 174 162 181 170 170 183 193 198 209 224 230 229 225 228 234 237 237 237 236 234 232 230 228 224 222 221 221 220 216 220 217 215 216 226 259 273
226 238 242 242 233 246 256 252 220 245 247 203 183 139 111 116 169 179 186 197 203 215 234 242 245 242 238 235 241 240 240 240 238 237 234 232 230 227 225 224 225 225 224 224 224 228 234 247 264
213 228 238 241 250 238 239 245 241 231 215 219 214 179 112 143 157 179 194 204 208 227 238 244 251 246 241 236 236 246 241 241 240 239 237 231 230 229 226 227 227 228 226 226 228 235 245 253 246
220 239 241 239 230 234 249 250 232 243 233 224 223 192 233 260 247 243 235 240 233 241 253 249 256 260 255 250 247 248 253 246 245 241 240 237 232 229 229 224 225 223 224 234 237 242 249 240 236
239 244 242 253 230 237 240 247 250 247 242 243 244 245 266 264 266 272 268 265 263 262 268 264 259 277 270 255 259 263 258 253 248 246 241 235 233 233 225 218 219 225 229 239 225 230 226 234 243
239 243 246 245 252 237 252 250 251 250 246 249 256 262 264 265 266 267 270 266 270 268 255 263 262 277 267 271 271 274 274 262 254 242 245 241 232 229 230 221 218 219 211 225 231 224 266 240 240
238 245 250 253 236 246 243 255 248 245 247 253 259 262 265 268 267 269 266 264 263 265 259 252 256 269 266 276 281 281 275 268 254 241 238 252 235 230 225 229 222 215 224 230 236 246 227 232 240
256 262 259 245 243 238 245 255 247 251 249 254 258 260 263 264 268 268 268 265 264 267 261 254 256 257 269 272 282 277 268 270 255 246 241 239 245 226 231 226 221 220 225 233 234 231 226 223 241
252 245 247 238 229 239 226 253 245 243 251 253 256 260 262 263 264 266 265 267 265 262 256 262 263 261 265 274 278 272 268 257 257 242 235 239 241 232 235 222 223 220 223 231 226 230 229 237 240
236 239 231 248 231 222 221 243 255 254 252 248 253 259 261 262 262 260 259 261 258 261 269 272 264 258 266 273 273 267 261 262 247 240 232 234 236 232 219 220 221 221 221 223 224 229 228 238 240
232 235 245 259 239 229 225 242 248 261 245 250 246 252 251 256 258 265 266 267 267 267 275 270 265 265 267 269 271 261 253 255 246 237 230 228 234 223 220 218 217 222 215 218 219 219 228 238 246
265 267 254 270 243 254 236 245 251 248 248 254 250 251 259 262 265 267 267 264 262 262 270 270 268 265 267 265 267 249 242 246 247 237 229 223 225 223 220 210 216 214 211 215 228 230 231 233 240
245 252 256 258 264 244 240 249 250 250 252 251 253 255 261 264 264 263 264 264 263 266 265 272 266 264 267 270 254 233 241 237 241 233 226 220 227 215 209 203 211 212 207 218 222 216 211 227 235
253 246 249 248 244 237 248 253 252 248 252 255 256 256 258 260 264 266 266 265 265 263 263 265 262 258 258 264 264 253 241 236 225 213 219 218 210 205 201 204 201 205 196 205 209 209 209 225 247
247 249 247 250 247 244 226 256 247 242 242 241 247 250 256 260 263 266 266 267 264 261 256 254 256 258 262 267 257 246 233 218 215 204 225 204 193 202 206 205 193 196 188 191 196 202 214 230 245
261 243 247 247 239 248 246 256 262 254 255 253 253 251 255 259 259 264 265 268 264 255 249 253 259 261 258 260 247 242 218 207 210 184 189 192 189 192 196 183 185 184 175 187 193 201 220 239 233
258 255 249 241 265 244 238 240 259 253 247 250 254 248 257 261 258 260 273 259 257 248 239 241 244 249 250 248 240 224 206 186 176 175 186 176 177 174 173 170 167 174 178 187 202 212 226 229 219
235 234 234 223 225 238 234 233 242 330 109 32 268 233 275 275 262 255 258 251 246 229 230 234 239 238 237 226 212 194 188 182 173 188 169 160 163 161 165 165 169 174 184 196 199 221 217 209 208
237 231 236 232 228 230 224 234 225 233 260 279 253 269 278 287 284 262 252 245 229 231 220 197 187 180 169 159 158 161 164 157 158 147 154 153 156 159 162 166 169 173 182 205 228 214 198 205 209
247 226 260 260 281 241 219 213 256 250 247 211 319 335 325 310 298 264 213 188 185 172 149 147 142 138 136 136 139 140 140 139 144 141 138 144 148 154 155 163 169 185 207 213 198 191 196 207 216
247 313 291 239 255 234 223 210 222 209 228 190 18 350 347 336 304 171 166 155 141 139 134 131 131 130 126 127 129 128 129 130 133 133 138 140 144 151 158 169 186 191 183 184 190 204 207 213 220
259 229 236 253 238 255 225 208 200 123 102 62 15 4 2 351 52 150 154 135 140 134 132 128 125 121 121 125 127 127 128 130 132 135 138 145 153 161 164 167 167 172 177 186 200 207 215 223 223
200 241 271 268 226 248 302 79 100 123 97 30 10 8 14 7 1 138 136 141 138 135 130 125 123 123 125 126 126 127 130 133 134 136 143 149 152 150 154 155 158 165 180 197 215 224 226 230 234